Flag for Italy Weather past 2 weeks in Bologna, Italy

Now
36 °F

Partly sunny.


Feels Like: 29 °F
Forecast: 31 / 44 °F
Wind: 8 mph from West

Location: Bologna / Borgo Panigale

Current Time: Jan 29, 2015 at 11:37:05 AM

Latest Report: Jan 29, 2015 at 10:50 AM


Visibility: N/A

Pressure: 29.62 "Hg

Humidity: 70%

Dew point: 27 °F

Location of BolognaLocation

Historic Weather in Bologna — Graph

°F

Bologna temperature yesterday

Maximum temperature yesterday: 50 °F (at 2:50 PM)
Minimum temperature yesterday: 27 °F (at 7:20 AM)
Average temperature yesterday: 36 °F

Past Weeks' High & Low Weather Summary

 TemperatureHumidityPressure
High64 °F (Jan 17, 1:20 PM)100% (Jan 15, 1:50 AM)30.27 "Hg (Jan 15, 1:50 AM)
Low27 °F (Jan 28, 7:20 AM)28% (Jan 17, 2:20 PM)29.59 "Hg (Jan 29, 8:20 AM)
Average42 °F79%29.96 "Hg
* Reported Jan 14 10:20 AM — Jan 29 10:20 AM, Bologna, Weather by CustomWeather, © 2014

Note: Actual official high and low records may vary slightly from our data, if they occured in-between our weather recording intervals... More about our weather records

Advertising

Bologna weather history for previous 24 hours

 ConditionsComfort  
Time TempWeatherWind HumidityBarometerVisibility
10:20 AM
Jan 29
36 °FPartly sunny.5 mph70%29.59 "HgN/A
9:50 AM37 °FScattered clouds.6 mph65%29.59 "HgN/A
9:20 AM45 °FPassing clouds.10 mph53%29.59 "HgN/A
8:50 AM41 °FPassing clouds.8 mph53%29.59 "HgN/A
8:20 AM41 °FSunny.8 mph49%29.59 "Hg10 mi
7:50 AM37 °FPassing clouds.6 mph52%29.62 "HgN/A
7:20 AM36 °FPassing clouds.5 mph56%29.62 "HgN/A
6:50 AM39 °FClear.7 mph45%29.65 "Hg10 mi
6:20 AM39 °FClear.9 mph45%29.65 "Hg10 mi
5:50 AM39 °FClear.10 mph45%29.65 "Hg10 mi
5:20 AM39 °FClear.9 mph45%29.68 "Hg10 mi
4:50 AM41 °FClear.8 mph42%29.68 "Hg10 mi
4:20 AM39 °FClear.8 mph45%29.71 "Hg10 mi
3:50 AM39 °FClear.8 mph45%29.71 "Hg10 mi
3:20 AM37 °FClear.7 mph48%29.74 "Hg10 mi
2:50 AM37 °FClear.9 mph45%29.77 "Hg10 mi
2:20 AM37 °FClear.10 mph48%29.77 "Hg10 mi
1:50 AM36 °FClear.8 mph52%29.77 "Hg10 mi
1:20 AM36 °FClear.9 mph52%29.80 "Hg10 mi
12:50 AM36 °FClear.10 mph52%29.80 "Hg10 mi
12:20 AM37 °FClear.12 mph48%29.83 "Hg10 mi
11:50 PM
Jan 28
37 °FClear.10 mph48%29.83 "Hg10 mi
11:20 PM34 °FClear.7 mph56%29.86 "Hg10 mi
10:50 PM36 °FClear.8 mph56%29.89 "Hg10 mi
10:20 PM34 °FClear.7 mph60%29.89 "Hg10 mi
9:50 PM34 °FClear.10 mph60%29.89 "Hg10 mi
9:20 PM36 °FPassing clouds.8 mph56%29.92 "HgN/A
8:50 PM37 °FClear.9 mph56%29.92 "Hg10 mi
8:20 PM34 °FClear.6 mph65%29.92 "Hg10 mi
7:50 PM36 °FPassing clouds.3 mph60%29.95 "HgN/A
7:20 PM37 °FClear.3 mph56%29.95 "Hg10 mi
6:50 PM37 °FClear.3 mph60%29.95 "Hg10 mi
6:20 PM37 °FClear.1 mph60%29.98 "Hg10 mi
5:50 PM39 °FClear.No wind56%29.98 "Hg10 mi
5:20 PM43 °FClear.No wind49%29.98 "Hg10 mi
4:50 PM46 °FSunny.2 mph43%29.98 "Hg10 mi
4:20 PM48 °FPassing clouds.3 mph40%29.98 "HgN/A
3:20 PM48 °FPassing clouds.5 mph40%29.98 "HgN/A
2:50 PM50 °FSunny.2 mph37%29.98 "Hg10 mi
2:20 PM48 °FPassing clouds.5 mph40%30.01 "HgN/A
1:50 PM48 °FSunny.2 mph40%30.01 "Hg10 mi
1:20 PM48 °FPassing clouds.6 mph40%30.04 "HgN/A
12:50 PM46 °FPassing clouds.7 mph43%30.04 "HgN/A
12:20 PM45 °FPassing clouds.9 mph46%30.07 "HgN/A
11:50 AM45 °FSunny.10 mph49%30.07 "Hg10 mi
11:20 AM43 °FPassing clouds.8 mph49%30.09 "HgN/A
Weather by CustomWeather, © 2014

See weather overviewHow to use our weather pages